DW7040 Weather Reports


Display with metric or nautical units.
time (UTC)temp
F
wind
direction
speed
MPH
gust
MPH
rain 1hr
in
rain 24hr
in
rain mn
in
humidity
%
barometer
mb
20260901160055 0 243 0.0 0.0 0.00 0.00 0.00 1008.0
20260901154515 0 243 0.0 0.0 0.00 0.00 0.00 1008.0
20260901153036 0 243 0.0 0.0 0.00 0.00 0.00 1008.0
20260901151527 0 241 0.0 0.0 0.00 0.00 0.00 1008.0
20260901150023 0 237 0.0 0.0 0.00 0.00 0.00 1008.0
20260901144516 0 241 0.0 0.0 0.00 0.00 0.00 1007.9
20260901143059 0 243 0.0 0.0 0.00 0.00 0.00 1007.8
20260901141554 0 243 0.0 0.0 0.00 0.00 0.00 1008.0
20260901140029 0 243 0.0 0.0 0.00 0.00 0.00 1007.9
20260901134506 0 240 0.0 0.0 0.00 0.00 0.00 1008.0
20260901133044 0 242 0.0 0.0 0.00 0.00 0.00 1008.2
20260901131531 0 245 0.0 0.0 0.00 0.00 0.00 1008.1
20260901130012 0 243 0.0 0.0 0.00 0.00 0.00 1008.4
20260901124548 0 243 0.0 0.0 0.00 0.00 0.00 1008.4
20260901123039 0 243 0.0 0.0 0.00 0.00 0.00 1008.3
20260901121539 0 243 0.0 0.0 0.00 0.00 0.00 1008.2
20260901120032 0 239 0.0 0.0 0.00 0.00 0.00 1008.2
20260901120009 0 237 0.0 0.0 0.00 0.00 0.00 1008.2
20260901114520 0 243 0.0 0.0 0.00 0.00 0.00 1008.1
20260901113019 0 240 0.0 0.0 0.00 0.00 0.00 1008.2
20260901111524 0 243 0.0 0.0 0.00 0.00 0.00 1008.1
20260901110045 0 240 0.0 0.0 0.00 0.00 0.00 1008.1
20260901104539 0 243 0.0 0.0 0.00 0.00 0.00 1008.2
20260901103047 0 243 0.0 0.0 0.00 0.00 0.00 1008.2
20260901101545 0 243 0.0 0.0 0.00 0.00 0.00 1008.1
20260901100044 0 243 0.0 0.0 0.00 0.00 0.00 1008.1
20260901094600 0 243 0.0 0.0 0.00 0.00 0.00 1008.1
20260901093022 0 242 0.0 0.0 0.00 0.00 0.00 1008.3
20260901091558 0 240 0.0 0.0 0.00 0.00 0.00 1008.3
20260901090044 0 242 0.0 0.0 0.00 0.00 0.00 1008.2
20260901084521 0 242 0.0 0.0 0.00 0.00 0.00 1008.0
20260901083057 0 242 0.0 0.0 0.00 0.00 0.00 1008.0
20260901081538 0 243 0.0 0.0 0.00 0.00 0.00 1008.0
20260901080049 0 242 0.0 0.0 0.00 0.00 0.00 1008.2
20260901074529 0 242 0.0 0.0 0.00 0.00 0.00 1008.3
20260901073040 0 242 0.0 0.0 0.00 0.00 0.00 1008.3
20260901071502 0 242 0.0 0.0 0.00 0.00 0.00 1008.3
20260901070056 0 243 0.0 0.0 0.00 0.00 0.00 1008.2
20260901064532 0 243 0.0 0.0 0.00 0.00 0.00 1008.4
20260901063016 0 242 0.0 0.0 0.00 0.00 0.00 1008.2
20260901061552 0 243 0.0 0.0 0.00 0.00 0.00 1008.1
20260901060009 0 243 0.0 0.0 0.00 0.00 0.00 1007.9
20260901054548 0 0.0 0.0 0.00 0.00 0.00 1007.9
20260901053037 0 0.0 0.0 0.00 0.00 0.00 1007.9
20260901051526 0 0.0 0.0 0.00 0.00 0.00 1007.9
20260901050020 0 0.0 0.0 0.00 0.00 0.00 1007.8
20260901044511 0 0.0 0.0 0.00 0.00 0.00 1007.9
20260901043008 0 0.0 0.0 0.00 0.00 0.00 1007.8
20260901041524 0 0.0 0.0 0.00 0.00 0.00 1007.9
20260901040114 0 0.0 0.0 0.00 0.00 0.00 1007.9
20260901034600 0 0.0 0.0 0.00 0.00 0.00 1007.9
20260901033101 0 0.0 0.0 0.00 0.00 0.00 1008.0
20260901031609 0 0.0 0.0 0.00 0.00 0.00 1008.1
20260901030029 0 0.0 0.0 0.00 0.00 0.00 1008.1
20260901024528 0 0.0 0.0 0.00 0.00 0.00 1008.1
20260901021536 0 0.0 0.0 0.00 0.00 0.00 1008.3
20260901020054 0 0.0 0.0 0.00 0.00 0.00 1008.3
20260901013004 0 0.0 0.0 0.00 0.00 0.00 1008.3
20260901010032 0 0.0 0.0 0.00 0.00 0.00 1008.3
20260901004517 0 241 0.0 0.0 0.00 0.00 0.00 1008.2
20260901001601 0 242 0.0 0.0 0.00 0.00 0.00 1008.3
20260901001524 0 241 0.0 0.0 0.00 0.00 0.00 1008.3
20260901000023 0 241 0.0 0.0 0.00 0.00 0.00 1008.3
20260831234525 0 242 0.0 0.0 0.00 0.00 0.00 1008.3
20260831231557 0 242 0.0 0.0 0.00 0.00 0.00 1008.4
20260831230039 0 242 0.0 0.0 0.00 0.00 0.00 1008.4
20260831224601 0 242 0.0 0.0 0.00 0.00 0.00 1008.5
20260831223036 0 242 0.0 0.0 0.00 0.00 0.00 1008.5
20260831221544 0 241 0.0 0.0 0.00 0.00 0.00 1008.4
20260831220055 0 242 0.0 0.0 0.00 0.00 0.00 1008.4
20260831214514 0 242 0.0 0.0 0.00 0.00 0.00 1008.3
20260831213010 0 241 0.0 0.0 0.00 0.00 0.00 1008.3
20260831211532 0 242 0.0 0.0 0.00 0.00 0.00 1008.2
20260831210026 0 241 0.0 0.0 0.00 0.00 0.00 1008.1
20260831204527 0 241 0.0 0.0 0.00 0.00 0.00 1008.1
20260831203022 0 241 0.0 1.0 0.00 0.00 0.00 1008.2
20260831201537 0 242 0.0 0.0 0.00 0.00 0.00 1008.2
20260831200039 0 242 0.0 0.0 0.00 0.00 0.00 1008.0
20260831194537 0 241 0.0 2.0 0.00 0.00 0.00 1007.8
20260831193036 0 241 0.0 2.0 0.00 0.00 0.00 1007.7
20260831191530 0 242 0.0 3.0 0.00 0.00 0.00 1007.5
20260831190021 0 241 0.0 3.0 0.00 0.00 0.00 1007.4
20260831184540 0 242 0.0 3.0 0.00 0.00 0.00 1007.2
20260831183057 0 242 0.0 4.0 0.00 0.00 0.00 1007.1
20260831181559 0 242 0.0 4.0 0.00 0.00 0.00 1007.0
20260831180022 0 241 1.0 4.0 0.00 0.00 0.00 1006.8
20260831174509 0 241 0.0 3.0 0.00 0.00 0.00 1006.7
20260831173002 0 241 0.0 2.0 0.00 0.00 0.00 1006.6
20260831171559 0 240 0.0 2.0 0.00 0.00 0.00 1006.5
20260831171500 0 240 0.0 2.0 0.00 0.00 0.00 1006.5
20260831170128 0 243 0.0 0.0 0.00 0.00 0.00 1006.4
20260831164550 0 241 0.0 0.0 0.00 0.00 0.00 1006.3
20260831163042 0 241 0.0 2.0 0.00 0.00 0.00 1006.2
20260831161526 0 241 0.0 0.0 0.00 0.00 0.00 1006.1